Voltar ao catálogo

STARLINK-4414

AtivoComunicaçõesSSO
NORAD 53213·PAYLOAD·🇺🇸 United States

Lançado Jul 22, 2022 de Vandenberg Space Force Base

Loading…

Próximas Passagens (próximas 24 horas)

TLE

AtualizadoSource: CelesTrak SupGP

Época: Sep 15, 2026, 02:20 UTC

1 53213C 22084AA  26258.09770833  .00058379  00000+0  18120-2 0  2583
2 53213  97.2840 313.0390 0001685  89.7525  65.2285 15.33413352    10

Acompanhe STARLINK-4414 em tempo real com AllMySat

Download on the App Store